Location: Bavegemberg
(50.9500°N, 3.8833°E)
Time: 02:10:11
(UTC+00:00)

Cosmos 1408 - Pass Details

Date: 23 May 2024
Orbit: 362 x 376 km, 82.6° (Epoch: 21 June)

Event Time Altitude Azimuth Distance (km) Brightness Sun altitude
Exits shadow 01:27:34 13° 140° (SE) 1,199 4.3 -14.7°
Maximum altitude 01:29:30 23° 91° (E) 838 4.0 -14.5°
Drops below altitude 10° 01:31:54 10° 37° (NE) 1,361 6.2 -14.4°
Enters shadow 02:24:24 -73° 191° (SSW) 12,585 9.6 -9.9°
